Comanche, TX

2:12 AM CDT on April 20, 2018 (GMT -0500)
Comanche

Weather History for KMKN - November, 2012

Change the Weather History Date:

Thursday, November 22, 2012

  Actual Average (KSEP) Record (KSEP)
Temperature  
Mean Temperature 67 °F -  
Max Temperature 75 °F 65 °F 86 °F (1955)
Min Temperature 59 °F 39 °F 23 °F (1926)
Cooling Degree Days 2    
Growing Degree Days 17 (Base 50)    
Moisture  
Dew Point 53 °F    
Average Humidity 65    
Maximum Humidity 82    
Minimum Humidity 47    
Precipitation  
Precipitation 0.00 in - - ()
Sea Level Pressure  
Sea Level Pressure 30.08 in    
Wind  
Wind Speed 11 mph (SSW)    
Max Wind Speed 21 mph    
Max Gust Speed 30 mph    
Visibility 10 miles    
Events      
Averages and records for this station are not official NWS values.
T = Trace of Precipitation, MM = Missing Value Source: NWS Daily Summary

Daily Weather History Graph

Daily Weather History Graph

Search for Another Location

Airport or City:

Astronomy

Nov. 22, 2012 Rise Set
Actual Time 7:09 AM CST 5:31 PM CST
Civil Twilight 6:43 AM CST 5:57 PM CST
Nautical Twilight 6:13 AM CST 6:27 PM CST
Astronomical Twilight 5:44 AM CST 6:56 PM CST
Moon 2:01 PM CST (11/22) 1:48 AM CST (11/22)
Length of Visible Light 11h 14m
Length of Day
10h 21m
Waxing Gibbous, 71% of the Moon is Illuminated
Nov 22
Waxing Gibbous
Nov 28
Full
Dec 6
Last Quarter
Dec 13
New
Dec 19
First Quarter

Hourly Weather History & Observations

Time (CST) Temp. Dew Point Humidity Pressure Visibility Wind Dir Wind Speed Gust Speed Precip Events Conditions
12:15 AM 60.8 °F 50.0 °F 68% 30.11 in 10.0 mi South 9.2 mph - N/A   Clear
12:35 AM 59.0 °F 50.0 °F 72% 30.10 in 10.0 mi South 9.2 mph - N/A   Clear
12:55 AM 59.0 °F 50.0 °F 72% 30.11 in 10.0 mi SSW 11.5 mph - N/A   Clear
1:15 AM 60.8 °F 50.0 °F 68% 30.10 in 10.0 mi South 12.7 mph - N/A   Clear
1:35 AM 60.8 °F 48.2 °F 63% 30.10 in 10.0 mi South 12.7 mph - N/A   Clear
1:55 AM 60.8 °F 48.2 °F 63% 30.11 in 10.0 mi SSW 10.4 mph 19.6 mph N/A   Clear
2:15 AM 60.8 °F 48.2 °F 63% 30.10 in 10.0 mi South 11.5 mph 17.3 mph N/A   Clear
2:35 AM 60.8 °F 50.0 °F 68% 30.10 in 10.0 mi SSW 11.5 mph 21.9 mph N/A   Clear
2:55 AM 60.8 °F 50.0 °F 68% 30.11 in 10.0 mi SSW 13.8 mph 20.7 mph N/A   Clear
3:15 AM 60.8 °F 50.0 °F 68% 30.11 in 10.0 mi SSW 12.7 mph - N/A   Clear
3:35 AM 60.8 °F 50.0 °F 68% 30.12 in 10.0 mi SSW 10.4 mph 16.1 mph N/A   Clear
4:15 AM 59.0 °F 50.0 °F 72% 30.10 in 10.0 mi SSW 9.2 mph - N/A   Clear
4:35 AM 59.0 °F 50.0 °F 72% 30.10 in 10.0 mi SSW 10.4 mph 17.3 mph N/A   Clear
4:55 AM 59.0 °F 50.0 °F 72% 30.09 in 10.0 mi South 9.2 mph - N/A   Clear
5:15 AM 59.0 °F 50.0 °F 72% 30.09 in 10.0 mi South 12.7 mph 18.4 mph N/A   Scattered Clouds
5:35 AM 59.0 °F 51.8 °F 77% 30.08 in 10.0 mi South 11.5 mph 20.7 mph N/A   Clear
5:55 AM 59.0 °F 51.8 °F 77% 30.08 in 10.0 mi SSW 13.8 mph 17.3 mph N/A   Clear
6:15 AM 59.0 °F 51.8 °F 77% 30.09 in 10.0 mi South 10.4 mph 18.4 mph N/A   Clear
6:35 AM 59.0 °F 51.8 °F 77% 30.09 in 10.0 mi South 11.5 mph - N/A   Clear
6:55 AM 59.0 °F 51.8 °F 77% 30.09 in 10.0 mi SSW 11.5 mph - N/A   Clear
7:15 AM 59.0 °F 51.8 °F 77% 30.11 in 10.0 mi SSW 12.7 mph - N/A   Clear
7:35 AM 59.0 °F 51.8 °F 77% 30.11 in 10.0 mi SSW 12.7 mph - N/A   Scattered Clouds
7:55 AM 59.0 °F 53.6 °F 82% 30.10 in 10.0 mi South 12.7 mph 19.6 mph N/A   Scattered Clouds
8:15 AM 60.8 °F 53.6 °F 77% 30.11 in 10.0 mi South 12.7 mph 19.6 mph N/A   Scattered Clouds
8:35 AM 60.8 °F 53.6 °F 77% 30.11 in 10.0 mi South 15.0 mph 19.6 mph N/A   Mostly Cloudy
8:55 AM 60.8 °F 53.6 °F 77% 30.11 in 10.0 mi South 12.7 mph 18.4 mph N/A   Overcast
9:15 AM 62.6 °F 53.6 °F 72% 30.11 in 10.0 mi SSW 17.3 mph 21.9 mph N/A   Scattered Clouds
9:35 AM 62.6 °F 53.6 °F 72% 30.11 in 10.0 mi SSW 15.0 mph 24.2 mph N/A   Mostly Cloudy
9:55 AM 64.4 °F 53.6 °F 68% 30.11 in 10.0 mi SSW 13.8 mph 21.9 mph N/A   Overcast
10:15 AM 64.4 °F 53.6 °F 68% 30.12 in 10.0 mi SSW 12.7 mph 19.6 mph N/A   Overcast
10:35 AM 64.4 °F 53.6 °F 68% 30.12 in 10.0 mi SSW 12.7 mph 17.3 mph N/A   Overcast
10:55 AM 64.4 °F 53.6 °F 68% 30.12 in 10.0 mi South 9.2 mph 23.0 mph N/A   Overcast
11:15 AM 66.2 °F 53.6 °F 64% 30.12 in 10.0 mi SSW 10.4 mph - N/A   Overcast
11:35 AM 68.0 °F 53.6 °F 60% 30.11 in 10.0 mi SSW 17.3 mph 20.7 mph N/A   Overcast
11:55 AM 71.6 °F 53.6 °F 53% 30.10 in 10.0 mi SW 11.5 mph 17.3 mph N/A   Overcast
12:15 PM 71.6 °F 53.6 °F 53% 30.09 in 10.0 mi SSW 16.1 mph 24.2 mph N/A   Overcast
12:35 PM 73.4 °F 53.6 °F 50% 30.07 in 10.0 mi SSW 12.7 mph 18.4 mph N/A   Mostly Cloudy
12:55 PM 75.2 °F 53.6 °F 47% 30.07 in 10.0 mi SSW 12.7 mph 24.2 mph N/A   Scattered Clouds
1:15 PM 75.2 °F 53.6 °F 47% 30.05 in 10.0 mi SSW 17.3 mph 28.8 mph N/A   Clear
1:35 PM 73.4 °F 53.6 °F 50% 30.04 in 10.0 mi South 15.0 mph 24.2 mph N/A   Scattered Clouds
1:55 PM 75.2 °F 53.6 °F 47% 30.03 in 10.0 mi South 18.4 mph 29.9 mph N/A   Scattered Clouds
2:15 PM 73.4 °F 53.6 °F 50% 30.02 in 10.0 mi SSW 20.7 mph 25.3 mph N/A   Clear
2:35 PM 73.4 °F 53.6 °F 50% 30.02 in 10.0 mi SSW 19.6 mph 25.3 mph N/A   Clear
2:55 PM 75.2 °F 53.6 °F 47% 30.02 in 10.0 mi South 17.3 mph 24.2 mph N/A   Clear
3:15 PM 73.4 °F 53.6 °F 50% 30.02 in 10.0 mi SSW 12.7 mph 20.7 mph N/A   Scattered Clouds
3:35 PM 75.2 °F 53.6 °F 47% 30.02 in 10.0 mi SSW 8.1 mph 18.4 mph N/A   Clear
4:15 PM 75.2 °F 53.6 °F 47% 30.02 in 10.0 mi South 12.7 mph 16.1 mph N/A   Mostly Cloudy
4:35 PM 73.4 °F 53.6 °F 50% 30.02 in 10.0 mi South 8.1 mph - N/A   Scattered Clouds
4:55 PM 73.4 °F 53.6 °F 50% 30.02 in 10.0 mi South 5.8 mph - N/A   Scattered Clouds
5:15 PM 71.6 °F 53.6 °F 53% 30.02 in 10.0 mi SSE 6.9 mph - N/A   Mostly Cloudy
5:35 PM 71.6 °F 53.6 °F 53% 30.02 in 10.0 mi South 5.8 mph - N/A   Scattered Clouds
5:55 PM 69.8 °F 53.6 °F 56% 30.03 in 10.0 mi South 8.1 mph - N/A   Clear
6:15 PM 69.8 °F 53.6 °F 56% 30.04 in 10.0 mi South 6.9 mph - N/A   Clear
6:35 PM 68.0 °F 53.6 °F 60% 30.04 in 10.0 mi South 6.9 mph - N/A   Scattered Clouds
6:55 PM 68.0 °F 53.6 °F 60% 30.05 in 10.0 mi South 6.9 mph - N/A   Clear
7:15 PM 66.2 °F 53.6 °F 64% 30.05 in 10.0 mi South 8.1 mph - N/A   Clear
7:35 PM 66.2 °F 53.6 °F 64% 30.06 in 10.0 mi South 6.9 mph - N/A   Clear
7:55 PM 64.4 °F 53.6 °F 68% 30.07 in 10.0 mi South 8.1 mph - N/A   Clear
8:15 PM 64.4 °F 53.6 °F 68% 30.07 in 10.0 mi South 8.1 mph - N/A   Clear
8:35 PM 62.6 °F 53.6 °F 72% 30.08 in 10.0 mi South 6.9 mph - N/A   Clear
8:55 PM 62.6 °F 53.6 °F 72% 30.08 in 10.0 mi South 6.9 mph - N/A   Clear
9:15 PM 62.6 °F 53.6 °F 72% 30.09 in 10.0 mi South 8.1 mph - N/A   Clear
9:35 PM 62.6 °F 53.6 °F 72% 30.09 in 10.0 mi South 9.2 mph - N/A   Clear
9:55 PM 62.6 °F 53.6 °F 72% 30.09 in 10.0 mi South 9.2 mph - N/A   Clear
10:15 PM 64.4 °F 53.6 °F 68% 30.09 in 10.0 mi South 10.4 mph - N/A   Clear
10:35 PM 64.4 °F 55.4 °F 73% 30.09 in 10.0 mi South 10.4 mph - N/A   Clear
10:55 PM 64.4 °F 55.4 °F 73% 30.09 in 10.0 mi SSW 9.2 mph - N/A   Clear
11:15 PM 64.4 °F 55.4 °F 73% 30.10 in 10.0 mi SSW 10.4 mph - N/A   Clear
11:35 PM 62.6 °F 55.4 °F 77% 30.10 in 10.0 mi SSW 8.1 mph - N/A   Clear
11:55 PM 62.6 °F 55.4 °F 77% 30.10 in 10.0 mi SSW 11.5 mph - N/A   Clear